TimePST,TemperatureF,Dew PointF,Humidity,Sea Level PressureIn,VisibilityMPH,Wind Direction,Wind SpeedMPH,Gust SpeedMPH,PrecipitationIn,Events,Conditions,WindDirDegrees,DateUTC
12:19 AM,42.8,37.4,81,29.68,6.0,SSE,12.7,19.6,N/A,,Haze,150,2013-02-07 08:19:00
12:53 AM,43.0,37.9,82,29.68,6.0,SSE,15.0,33.4,0.01,,Haze,160,2013-02-07 08:53:00
1:00 AM,42.8,37.4,81,29.67,6.0,SE,17.3,27.6,N/A,,Haze,140,2013-02-07 09:00:00
1:14 AM,42.8,37.4,81,29.67,4.0,SSE,13.8,29.9,0.00,Rain,Light Rain,150,2013-02-07 09:14:00
1:24 AM,42.8,39.2,87,29.68,1.8,SSE,10.4,26.5,0.01,Rain,Rain,160,2013-02-07 09:24:00
1:35 AM,42.8,39.2,87,29.68,3.0,SSE,13.8,26.5,0.03,Rain,Light Rain,160,2013-02-07 09:35:00
1:53 AM,44.1,39.9,85,29.69,3.0,SSW,12.7,26.5,0.03,Rain,Light Rain,200,2013-02-07 09:53:00
1:58 AM,44.6,39.2,81,29.69,1.8,South,19.6,31.1,0.01,Rain,Rain,180,2013-02-07 09:58:00
2:09 AM,44.6,39.2,81,29.70,3.0,SSW,15.0,25.3,0.03,Rain,Light Rain,210,2013-02-07 10:09:00
2:53 AM,43.0,37.9,82,29.77,2.5,SW,16.1,27.6,0.03,Rain,Light Rain,230,2013-02-07 10:53:00
3:08 AM,42.8,37.4,81,29.78,5.0,SW,9.2,20.7,0.01,Rain,Light Rain,220,2013-02-07 11:08:00
3:26 AM,42.8,37.4,81,29.79,3.0,SW,17.3,26.5,0.02,Rain,Light Rain,220,2013-02-07 11:26:00
3:53 AM,42.1,37.0,82,29.82,5.0,SW,11.5,23.0,0.03,,Haze,220,2013-02-07 11:53:00
4:53 AM,41.0,37.0,86,29.85,5.0,SSW,6.9,-,0.00,,Overcast,200,2013-02-07 12:53:00
5:53 AM,43.0,37.0,80,29.88,5.0,SSW,8.1,-,N/A,,Haze,200,2013-02-07 13:53:00
6:53 AM,42.1,36.0,79,29.91,6.0,Calm,Calm,-,0.00,,Haze,0,2013-02-07 14:53:00
7:53 AM,39.0,35.1,86,29.93,4.0,SE,4.6,-,N/A,,Partly Cloudy,130,2013-02-07 15:53:00
8:43 AM,42.8,37.4,81,29.96,2.0,SSW,3.5,-,0.01,Rain,Light Rain,210,2013-02-07 16:43:00
8:49 AM,42.8,35.6,76,29.96,1.8,SSW,4.6,-,0.01,Rain,Light Rain,200,2013-02-07 16:49:00
8:53 AM,42.1,36.0,79,29.96,1.5,Calm,Calm,-,0.01,Rain,Light Rain,0,2013-02-07 16:53:00
8:59 AM,42.8,37.4,81,29.96,3.0,Calm,Calm,-,N/A,Rain,Light Rain,0,2013-02-07 16:59:00
9:18 AM,42.8,35.6,76,29.96,5.0,ESE,8.1,-,0.00,,Haze,110,2013-02-07 17:18:00
9:53 AM,45.0,37.0,74,29.98,5.0,Variable,6.9,-,0.00,,Haze,0,2013-02-07 17:53:00
10:08 AM,44.6,35.6,71,29.97,5.0,Calm,Calm,-,N/A,,Haze,0,2013-02-07 18:08:00
10:53 AM,45.0,36.0,71,30.00,5.0,Calm,Calm,-,N/A,,Haze,0,2013-02-07 18:53:00
11:05 AM,44.6,37.4,76,30.01,5.0,NW,3.5,-,N/A,,Haze,310,2013-02-07 19:05:00
11:27 AM,42.8,37.4,81,30.01,1.8,NNE,3.5,-,0.00,Rain,Light Rain,20,2013-02-07 19:27:00
11:41 AM,42.8,37.4,81,30.01,2.0,North,3.5,-,0.01,Rain,Light Rain,360,2013-02-07 19:41:00
11:53 AM,43.0,37.9,82,30.02,3.0,Variable,3.5,-,0.02,Rain,Light Rain,0,2013-02-07 19:53:00
12:28 PM,44.6,39.2,81,30.01,5.0,South,3.5,-,0.00,,Haze,190,2013-02-07 20:28:00
12:53 PM,46.0,37.9,73,30.02,5.0,Calm,Calm,-,0.00,,Haze,0,2013-02-07 20:53:00
1:53 PM,45.0,39.0,80,30.03,3.0,North,4.6,-,0.00,Rain,Light Rain,10,2013-02-07 21:53:00
2:02 PM,44.6,39.2,81,30.03,1.8,NNE,4.6,-,0.00,Rain,Light Rain,20,2013-02-07 22:02:00
2:16 PM,44.6,39.2,81,30.03,3.0,North,5.8,-,0.01,Rain,Light Rain,10,2013-02-07 22:16:00
2:53 PM,46.0,41.0,83,30.04,4.0,NNE,4.6,-,0.01,Rain,Light Rain,30,2013-02-07 22:53:00
3:18 PM,44.6,37.4,76,30.05,5.0,ESE,5.8,-,0.00,,Haze,110,2013-02-07 23:18:00
3:53 PM,44.1,37.0,76,30.06,5.0,Calm,Calm,-,0.00,,Haze,0,2013-02-07 23:53:00
4:53 PM,44.1,37.9,79,30.07,5.0,Calm,Calm,-,N/A,,Haze,0,2013-02-08 00:53:00
5:53 PM,39.0,35.1,86,30.10,3.0,Calm,Calm,-,N/A,,Clear,0,2013-02-08 01:53:00
6:16 PM,37.4,33.8,87,30.10,1.8,Calm,Calm,-,N/A,,Clear,0,2013-02-08 02:16:00
6:19 PM,37.4,33.8,87,30.10,1.0,Calm,Calm,-,N/A,,Mist,0,2013-02-08 02:19:00
6:27 PM,37.4,33.8,87,30.10,0.8,Calm,Calm,-,N/A,,Mist,0,2013-02-08 02:27:00
6:33 PM,37.4,33.8,87,30.11,1.0,Calm,Calm,-,N/A,,Clear,0,2013-02-08 02:33:00
6:45 PM,37.4,33.8,87,30.11,1.0,Calm,Calm,-,N/A,,Mist,0,2013-02-08 02:45:00
6:53 PM,36.0,33.1,89,30.12,1.0,Calm,Calm,-,N/A,,Mist,0,2013-02-08 02:53:00
7:02 PM,35.6,32.0,87,30.12,0.8,North,3.5,-,N/A,,Mist,360,2013-02-08 03:02:00
7:06 PM,37.4,33.8,87,30.12,1.2,Calm,Calm,-,N/A,,Partly Cloudy,0,2013-02-08 03:06:00
7:09 PM,37.4,33.8,87,30.13,2.0,Calm,Calm,-,N/A,,Partly Cloudy,0,2013-02-08 03:09:00
7:17 PM,37.4,33.8,87,30.13,5.0,Calm,Calm,-,N/A,,Partly Cloudy,0,2013-02-08 03:17:00
7:53 PM,35.1,30.9,85,30.15,3.0,Calm,Calm,-,N/A,,Partly Cloudy,0,2013-02-08 03:53:00
8:01 PM,35.6,32.0,87,30.15,2.0,Calm,Calm,-,N/A,,Clear,0,2013-02-08 04:01:00
8:11 PM,35.6,32.0,87,30.15,5.0,Calm,Calm,-,N/A,,Clear,0,2013-02-08 04:11:00
8:41 PM,35.6,32.0,87,30.16,2.5,Calm,Calm,-,N/A,,Partly Cloudy,0,2013-02-08 04:41:00
8:46 PM,35.6,32.0,87,30.17,1.2,Calm,Calm,-,N/A,,Partly Cloudy,0,2013-02-08 04:46:00
8:49 PM,35.6,32.0,87,30.17,0.8,Calm,Calm,-,N/A,,Mist,0,2013-02-08 04:49:00
8:53 PM,35.1,32.0,89,30.17,1.0,Calm,Calm,-,N/A,,Mist,0,2013-02-08 04:53:00
8:59 PM,35.6,30.2,81,30.17,2.5,East,3.5,-,N/A,,Partly Cloudy,90,2013-02-08 04:59:00
9:06 PM,35.6,32.0,87,30.17,5.0,Calm,Calm,-,N/A,,Scattered Clouds,0,2013-02-08 05:06:00
9:13 PM,33.8,30.2,87,30.18,1.8,NNE,3.5,-,N/A,,Partly Cloudy,30,2013-02-08 05:13:00
9:19 PM,33.8,30.2,87,30.18,3.0,Calm,Calm,-,N/A,,Partly Cloudy,0,2013-02-08 05:19:00
9:38 PM,33.8,30.2,87,30.19,2.0,Calm,Calm,-,N/A,,Partly Cloudy,0,2013-02-08 05:38:00
9:47 PM,33.8,30.2,87,30.19,1.2,ENE,3.5,-,N/A,,Mostly Cloudy,60,2013-02-08 05:47:00
9:53 PM,33.1,30.0,89,30.19,1.0,Calm,Calm,-,N/A,,Mist,0,2013-02-08 05:53:00
10:07 PM,33.8,30.2,87,30.19,0.5,Calm,Calm,-,N/A,Fog,Fog,0,2013-02-08 06:07:00
10:53 PM,32.0,28.9,88,30.20,0.2,Calm,Calm,-,N/A,Fog,Fog,0,2013-02-08 06:53:00
11:47 PM,32.0,28.4,87,30.21,0.5,Calm,Calm,-,N/A,Fog,Fog,0,2013-02-08 07:47:00
11:53 PM,30.9,28.0,89,30.22,1.2,Calm,Calm,-,N/A,,Mostly Cloudy,0,2013-02-08 07:53:00